User: anonymous   Login
Location: Ch�tillon
(48.8024°N, 2.2935°E)
Time: 08:41:47
(UTC+00:00)
Language:

COSMOS 2251 DEB - Orbit

View from above orbital plane
View from above orbital plane
View from above satellite
View from above satellite

Ground track
Ground track

The orbit data is extracted from the following two-line orbital elements,

1 34424U 93036RR  22330.71265355  .00009794  00000-0  13074-2 0  9998
2 34424  74.0173  67.7634 0040240 116.8227  33.0297 14.79092973734909
Epoch (UTC): 26 November 2022 17:06:13
Eccentricity: 0.0040240
inclination: 74.0173°
perigee height: 604 km
apogee height: 660 km
right ascension of ascending node: 67.7634°
argument of perigee: 116.8227°
revolutions per day: 14.79092973
mean anomaly at epoch: 33.0297°
orbit number at epoch: 73490

The dashed part of the orbit path shows where the satellite is in the earth's shadow,  

DLR